Location: Ant�mano
(10.4664°N, 66.9743°W)
Time: 18:30:15
(UTC+00:00)

Daily predictions for brighter satellites

Satellite Brightness Start Highest point End
(mag) Time Altitude Azimuth Time Altitude Azimuth Time Altitude Azimuth
BREEZE-M DEB (TANK) 4.4 22:50:30 10° NW 22:54:35 89° NE 23:09:56 10° SE
Meteor 1-27 Rocket 4.0 22:53:45 10° N 22:59:18 77° W 23:04:57 10° S
H-2A R/B 2.8 22:55:31 10° SE 23:00:16 33° ENE 23:05:04 10° NNE
SAR-Lupe-4 3.5 22:59:32 10° NNE 23:03:05 88° ESE 23:06:40 10° SSW
ATLAS CENTAUR R/B 4.2 23:01:40 10° W 23:03:37 14° WNW 23:05:32 10° NNW
Cosmos 2322 3.8 22:58:03 10° S 23:03:38 56° ESE 23:09:12 10° NNE
Cosmos 1707 Rocket 3.5 23:00:35 10° N 23:04:52 66° E 23:09:09 10° SSE
GPS 2-15 Rocket1 3.4 23:00:10 10° WNW 23:05:00 60° NNE 23:09:53 10° E
IRS-1C Rocket 4.4 23:00:17 10° SSE 23:05:16 45° ENE 23:10:15 10° N
TSX-5 3.3 23:02:44 10° N 23:05:50 53° ENE 23:08:53 10° SSE
SWIFT 4.1 23:03:01 10° WNW 23:06:17 22° N 23:09:34 10° NE
Cosmos 1666 3.7 23:05:38 10° SSE 23:08:42 24° E 23:11:45 10° NE
USA 238 DEB 4.4 23:03:35 10° SSE 23:08:59 28° ESE 23:14:23 10° NE
USA 238 4.4 23:03:41 10° SSE 23:09:04 28° ESE 23:14:29 10° NE
Cosmos 2263 Rocket 2.4 23:04:43 10° N 23:10:03 47° ENE 23:15:23 10° SSE
SeaSat 1 3.7 23:06:38 10° N 23:11:18 45° WNW 23:15:59 10° SW
Okean-O 3.3 23:07:29 10° SE 23:11:25 32° ENE 23:15:20 10° NNE
SL-8 Rocket 4.4 23:11:57 10° SSE 23:17:40 38° E 23:23:21 10° NNE
Cosmos 962 Rocket 4.4 23:13:43 10° S 23:19:47 67° E 23:25:55 10° N
Lacrosse 5 rocket 3.0 23:16:45 10° NW 23:20:32 35° WSW 23:24:08 10° S
ERS-2 3.7 23:17:40 10° N 23:21:04 38° WNW 23:24:27 10° SW
CZ-2C R/B 2.6 23:17:16 10° NNE 23:22:36 90° WNW 23:27:50 10° SSW
SME Rocket 3.9 23:20:52 10° NE 23:25:06 29° E 23:28:32 10° SSE
DMSP B5D2-2 4.1 23:22:03 10° NNE 23:27:09 58° ESE 23:32:15 10° S
Cosmos 1500 4.1 23:23:46 10° SSW 23:27:24 51° W 23:31:01 10° N
Cosmos 1271 Rocket 3.5 23:25:19 10° NNW 23:28:58 54° W 23:32:43 10° S
Cosmos 2366 rocket 4.3 23:26:59 10° SSE 23:32:46 41° E 23:38:36 10° NNE
Meteor 1-5 Rocket 4.0 23:28:44 10° S 23:34:01 90° ESE 23:39:21 10° N
NOSS 3-2 (A) 2.9 23:36:03 10° SSW 23:41:18 75° ESE 23:46:45 10° NNE
SL-08 RB Rocket 4.1 23:37:26 10° SE 23:41:32 37° ENE 23:45:39 10° N
Cosmos 2341 Rocket 4.1 23:35:27 10° S 23:41:50 86° W 23:48:09 10° N
Cosmos 2237 Rocket 3.4 23:38:41 10° SSE 23:42:17 22° ESE 23:42:17 22° ESE
SJ-11-01 4.4 23:43:40 10° S 23:48:20 77° W 23:52:59 10° NNW
Cosmos 2333 Rocket 3.0 23:45:18 10° SSW 23:50:45 51° WNW 23:56:14 10° N
Hubble Space Telescope 3.1 23:51:44 10° WNW 23:54:13 15° NNW 23:56:07 12° N
Lacrosse 4 Rocket 3.4 23:52:11 10° SW 23:55:53 29° WNW 23:59:41 10° N
